Hourly Data Report for October 14, 2002

SHERBROOKE A
QUEBEC

45°26'00.000" N
71°41'00.000" W
241.40 m
7028124
71610
YSC

Download Data

Hourly Data (October 2002)
Hourly Data Report for October 14, 2002
TIME
LST
Temp Definition
°C
Dew Point Definition
°C
Rel Hum Definition
%
Precip. Amount Definition
mm

Wind Dir Definition
10's deg

Wind Spd Definition
km/h
Visibility Definition
km
Stn Press Definition
kPa
Hmdx Definition


Wind Chill Definition


Weather Definition


00:00 6.8 5.3 90   26 15 15.0 98.97      
01:00 6.1 4.1 87   25 17 15.0 99.03      
02:00 4.6 1.0 77   24 19 15.0 99.06      
03:00 3.8 0.0 76   25 19 15.0 99.11      
04:00 2.5 -1.5 75   26 24 15.0 99.14     Snow
05:00 2.1 -1.8 75   25 19 15.0 99.20      
06:00 1.2 -2.2 78   26 15 15.0 99.24      
07:00 2.0 -1.7 76   26 20 24.1 99.32     Mainly Clear
08:00 3.7 -0.7 73   26 15 24.1 99.39     Mainly Clear
09:00 4.1 -1.6 66   28 19 24.1 99.43     Mostly Cloudy
10:00 6.0 -1.4 59   30 24 24.1 99.40     Mostly Cloudy
11:00 5.8 -2.4 56   30 24 24.1 99.43     Mostly Cloudy
12:00 7.6 -2.4 49   29 17 24.1 99.43     Mainly Clear
13:00 7.3 -3.9 45   28 24 24.1 99.44     Mostly Cloudy
14:00 7.9 -4.0 43   31 22 24.1 99.45     Mainly Clear
15:00 7.8 -4.4 42   28 17 24.1 99.46     Mainly Clear
16:00 6.7 -5.6 41   28 17 24.1 99.48     Mainly Clear
17:00 4.3 -5.2 50   29 11 15.0 99.54      
18:00 -0.2 -4.4 73     0 15.0 99.60      
19:00 -1.1 -4.9 75   29 4 15.0 99.62   -2  
20:00 0.2 -5.5 65   32 6 15.0 99.64      
21:00 -3.2 -5.5 84   25 4 15.0 99.69   -5  
22:00 -4.0 -5.8 87     0 15.0 99.69      
23:00 -3.9 -5.2 91   9 4 15.0 99.70   -6  

Notes on Data Quality.

Legend

  • E = Estimated
  • M = Missing
  • NA = Not Available*
  • [empty] = Indicates an unobserved value
Date modified: